| time (UTC) | temp C | wind direction | speed KPH | gust KPH | rain 1hr cm | rain 24hr cm | rain mn cm | humidity % | barometer mb |
| 20260505224138 | 25 | 239 | 16.1 | 24.1 | 0.00 | 0.05 | 0.05 | 42 | 1007.9 |
| 20260505223635 | 25 | 155 | 14.5 | 22.5 | 0.00 | 0.05 | 0.05 | 43 | 1007.9 |
| 20260505223130 | 25 | 249 | 17.7 | 29.0 | 0.00 | 0.05 | 0.05 | 42 | 1007.8 |
| 20260505222627 | 25 | 189 | 19.3 | 33.8 | 0.00 | 0.05 | 0.05 | 43 | 1008.0 |
| 20260505222123 | 25 | 186 | 17.7 | 29.0 | 0.00 | 0.05 | 0.05 | 42 | 1008.0 |
| 20260505221620 | 25 | 210 | 17.7 | 29.0 | 0.00 | 0.05 | 0.05 | 43 | 1007.7 |
| 20260505221117 | 25 | 208 | 14.5 | 27.4 | 0.00 | 0.05 | 0.05 | 41 | 1008.0 |
| 20260505220614 | 26 | 223 | 12.9 | 22.5 | 0.00 | 0.05 | 0.05 | 42 | 1007.9 |
| 20260505220112 | 26 | 226 | 27.4 | 38.6 | 0.00 | 0.05 | 0.05 | 40 | 1007.7 |
| 20260505215609 | 25 | 221 | 16.1 | 22.5 | 0.00 | 0.05 | 0.05 | 41 | 1007.8 |
| 20260505215107 | 25 | 226 | 22.5 | 35.4 | 0.00 | 0.05 | 0.05 | 41 | 1007.7 |
| 20260505214605 | 26 | 194 | 12.9 | 27.4 | 0.00 | 0.05 | 0.05 | 41 | 1007.7 |
| 20260505214102 | 26 | 228 | 25.7 | 35.4 | 0.00 | 0.05 | 0.05 | 41 | 1007.6 |
| 20260505213600 | 26 | 227 | 16.1 | 33.8 | 0.00 | 0.05 | 0.05 | 42 | 1007.7 |
| 20260505213056 | 25 | 213 | 11.3 | 37.0 | 0.00 | 0.05 | 0.05 | 43 | 1007.4 |
| 20260505212552 | 26 | 238 | 16.1 | 20.9 | 0.00 | 0.05 | 0.05 | 42 | 1007.6 |
| 20260505212050 | 25 | 230 | 17.7 | 24.1 | 0.00 | 0.05 | 0.05 | 44 | 1007.5 |
| 20260505211546 | 25 | 199 | 8.0 | 14.5 | 0.00 | 0.05 | 0.05 | 45 | 1007.4 |
| 20260505211043 | 25 | 225 | 11.3 | 35.4 | 0.00 | 0.05 | 0.05 | 44 | 1007.5 |
| 20260505210540 | 25 | 192 | 11.3 | 12.9 | 0.00 | 0.05 | 0.05 | 44 | 1007.9 |
| 20260505210037 | 25 | 222 | 8.0 | 32.2 | 0.00 | 0.05 | 0.05 | 46 | 1007.6 |
| 20260505205535 | 25 | 205 | 16.1 | 37.0 | 0.00 | 0.05 | 0.05 | 43 | 1007.6 |
| 20260505205032 | 25 | 212 | 14.5 | 29.0 | 0.00 | 0.05 | 0.05 | 43 | 1007.5 |
| 20260505204530 | 25 | 210 | 14.5 | 20.9 | 0.00 | 0.05 | 0.05 | 45 | 1007.7 |
| 20260505204027 | 25 | 307 | 8.0 | 29.0 | 0.00 | 0.05 | 0.05 | 44 | 1007.6 |
| 20260505203523 | 26 | 164 | 14.5 | 25.7 | 0.00 | 0.05 | 0.05 | 43 | 1007.6 |
| 20260505203020 | 25 | 236 | 16.1 | 27.4 | 0.00 | 0.05 | 0.05 | 43 | 1007.8 |
| 20260505202516 | 25 | 186 | 12.9 | 22.5 | 0.00 | 0.05 | 0.05 | 46 | 1007.6 |
| 20260505202012 | 25 | 184 | 9.7 | 22.5 | 0.00 | 0.05 | 0.05 | 43 | 1007.7 |
| 20260505201510 | 26 | 188 | 14.5 | 20.9 | 0.00 | 0.05 | 0.05 | 43 | 1007.7 |
| 20260505201007 | 25 | 187 | 9.7 | 24.1 | 0.00 | 0.05 | 0.05 | 44 | 1007.8 |
| 20260505200505 | 25 | 162 | 8.0 | 29.0 | 0.00 | 0.05 | 0.05 | 45 | 1007.7 |
| 20260505200001 | 26 | 226 | 25.7 | 29.0 | 0.00 | 0.05 | 0.05 | 42 | 1007.8 |
| 20260505195458 | 25 | 252 | 17.7 | 33.8 | 0.00 | 0.05 | 0.05 | 43 | 1007.8 |
| 20260505194955 | 25 | 205 | 22.5 | 32.2 | 0.00 | 0.05 | 0.05 | 43 | 1008.1 |
| 20260505194452 | 25 | 169 | 16.1 | 51.5 | 0.00 | 0.05 | 0.05 | 43 | 1008.0 |
| 20260505193952 | 26 | 228 | 20.9 | 35.4 | 0.00 | 0.05 | 0.05 | 42 | 1007.9 |
| 20260505193450 | 26 | 152 | 11.3 | 25.7 | 0.00 | 0.05 | 0.05 | 42 | 1007.8 |
| 20260505192947 | 26 | 225 | 16.1 | 25.7 | 0.00 | 0.05 | 0.05 | 42 | 1008.0 |
| 20260505192446 | 26 | 215 | 19.3 | 37.0 | 0.00 | 0.05 | 0.05 | 42 | 1007.8 |
| 20260505191943 | 26 | 235 | 17.7 | 24.1 | 0.00 | 0.05 | 0.05 | 41 | 1007.7 |
| 20260505191442 | 26 | 219 | 17.7 | 24.1 | 0.00 | 0.05 | 0.05 | 43 | 1008.0 |
| 20260505190938 | 25 | 207 | 16.1 | 29.0 | 0.00 | 0.05 | 0.05 | 45 | 1007.8 |
| 20260505190433 | 26 | 147 | 17.7 | 25.7 | 0.00 | 0.05 | 0.05 | 44 | 1008.1 |
| 20260505185929 | 26 | 184 | 11.3 | 22.5 | 0.00 | 0.05 | 0.05 | 46 | 1008.4 |
| 20260505185427 | 26 | 183 | 4.8 | 16.1 | 0.00 | 0.05 | 0.05 | 44 | 1008.5 |
| 20260505184923 | 25 | 143 | 14.5 | 33.8 | 0.00 | 0.05 | 0.05 | 45 | 1008.6 |
| 20260505184420 | 25 | 206 | 14.5 | 38.6 | 0.00 | 0.05 | 0.05 | 44 | 1008.6 |
| 20260505183916 | 26 | 205 | 22.5 | 29.0 | 0.00 | 0.05 | 0.05 | 40 | 1008.6 |
| 20260505183413 | 25 | 150 | 11.3 | 22.5 | 0.00 | 0.05 | 0.05 | 44 | 1008.9 |
| 20260505182910 | 26 | 231 | 24.1 | 32.2 | 0.00 | 0.05 | 0.05 | 42 | 1008.9 |
| 20260505182407 | 25 | 157 | 14.5 | 32.2 | 0.00 | 0.05 | 0.05 | 43 | 1009.1 |
| 20260505181903 | 25 | 248 | 14.5 | 25.7 | 0.00 | 0.05 | 0.05 | 42 | 1009.0 |
| 20260505181401 | 25 | 225 | 24.1 | 32.2 | 0.00 | 0.05 | 0.05 | 41 | 1008.7 |
| 20260505180857 | 26 | 199 | 24.1 | 35.4 | 0.00 | 0.05 | 0.05 | 42 | 1009.0 |
| 20260505180354 | 26 | 243 | 16.1 | 27.4 | 0.00 | 0.05 | 0.05 | 42 | 1009.0 |
| 20260505175850 | 26 | 182 | 11.3 | 17.7 | 0.00 | 0.05 | 0.05 | 42 | 1009.1 |
| 20260505175347 | 25 | 239 | 11.3 | 33.8 | 0.00 | 0.05 | 0.05 | 43 | 1009.2 |
| 20260505174843 | 26 | 184 | 24.1 | 37.0 | 0.00 | 0.05 | 0.05 | 42 | 1009.3 |
| 20260505174341 | 25 | 230 | 24.1 | 35.4 | 0.00 | 0.05 | 0.05 | 41 | 1009.1 |
| 20260505173836 | 25 | 245 | 22.5 | 37.0 | 0.00 | 0.05 | 0.05 | 43 | 1009.3 |
| 20260505173333 | 25 | 279 | 16.1 | 24.1 | 0.00 | 0.05 | 0.05 | 45 | 1009.3 |
| 20260505172830 | 25 | 239 | 19.3 | 22.5 | 0.00 | 0.05 | 0.05 | 45 | 1009.1 |
| 20260505172328 | 25 | 229 | 12.9 | 24.1 | 0.00 | 0.05 | 0.05 | 48 | 1009.4 |
| 20260505171827 | 25 | 241 | 11.3 | 22.5 | 0.00 | 0.05 | 0.05 | 48 | 1009.2 |
| 20260505171325 | 25 | 234 | 11.3 | 16.1 | 0.00 | 0.05 | 0.05 | 47 | 1009.3 |
| 20260505170821 | 25 | 239 | 20.9 | 25.7 | 0.00 | 0.05 | 0.05 | 46 | 1009.4 |
| 20260505170318 | 25 | 246 | 11.3 | 22.5 | 0.00 | 0.05 | 0.05 | 47 | 1009.7 |
| 20260505165813 | 25 | 181 | 8.0 | 17.7 | 0.00 | 0.05 | 0.05 | 50 | 1009.7 |
| 20260505165309 | 25 | 251 | 14.5 | 22.5 | 0.00 | 0.05 | 0.05 | 49 | 1009.7 |
| 20260505164805 | 25 | 189 | 9.7 | 27.4 | 0.00 | 0.05 | 0.05 | 49 | 1009.8 |
| 20260505164303 | 25 | 238 | 11.3 | 17.7 | 0.00 | 0.05 | 0.05 | 48 | 1009.9 |
| 20260505163801 | 25 | 242 | 8.0 | 20.9 | 0.00 | 0.05 | 0.05 | 49 | 1010.2 |
| 20260505163259 | 25 | 205 | 16.1 | 20.9 | 0.00 | 0.05 | 0.05 | 48 | 1010.3 |
| 20260505162756 | 25 | 238 | 12.9 | 20.9 | 0.00 | 0.05 | 0.05 | 47 | 1010.0 |
| 20260505162253 | 25 | 203 | 9.7 | 16.1 | 0.00 | 0.05 | 0.05 | 49 | 1009.9 |
| 20260505161750 | 25 | 312 | 11.3 | 22.5 | 0.00 | 0.05 | 0.05 | 47 | 1010.0 |
| 20260505161247 | 25 | 230 | 9.7 | 22.5 | 0.00 | 0.05 | 0.05 | 48 | 1010.3 |
| 20260505160744 | 25 | 213 | 11.3 | 12.9 | 0.00 | 0.05 | 0.05 | 49 | 1010.4 |
| 20260505160242 | 25 | 246 | 6.4 | 11.3 | 0.00 | 0.05 | 0.05 | 52 | 1010.1 |
| 20260505153221 | 23 | 212 | 14.5 | 33.8 | 0.00 | 0.05 | 0.05 | 52 | 1010.3 |
| 20260505152718 | 23 | 265 | 11.3 | 24.1 | 0.00 | 0.05 | 0.05 | 51 | 1010.3 |
| 20260505152214 | 23 | 208 | 16.1 | 22.5 | 0.00 | 0.05 | 0.05 | 50 | 1010.6 |
| 20260505151709 | 23 | 230 | 11.3 | 14.5 | 0.00 | 0.05 | 0.05 | 54 | 1010.5 |
| 20260505151207 | 23 | 196 | 9.7 | 14.5 | 0.00 | 0.05 | 0.05 | 55 | 1010.4 |
| 20260505150703 | 23 | 264 | 8.0 | 14.5 | 0.00 | 0.05 | 0.05 | 52 | 1010.6 |
| 20260505150201 | 23 | 187 | 9.7 | 20.9 | 0.00 | 0.05 | 0.05 | 53 | 1010.6 |
| 20260505140633 | 21 | 160 | 12.9 | 20.9 | 0.00 | 0.05 | 0.05 | 59 | 1011.0 |
| 20260505140131 | 21 | 192 | 9.7 | 24.1 | 0.00 | 0.05 | 0.05 | 60 | 1011.0 |
| 20260505124544 | 20 | 337 | 4.8 | 8.0 | 0.00 | 0.05 | 0.05 | 65 | 1011.4 |
| 20260505124040 | 20 | 96 | 3.2 | 3.2 | 0.00 | 0.05 | 0.05 | 66 | 1011.4 |
| 20260505123536 | 20 | 127 | 0.0 | 8.0 | 0.00 | 0.05 | 0.05 | 64 | 1011.2 |
| 20260505123033 | 19 | 148 | 0.0 | 1.6 | 0.00 | 0.05 | 0.05 | 69 | 1011.5 |
| 20260505122530 | 18 | 125 | 0.0 | 0.0 | 0.00 | 0.05 | 0.05 | 74 | 1011.5 |
| 20260505122027 | 17 | 150 | 0.0 | 3.2 | 0.00 | 0.05 | 0.05 | 78 | 1011.5 |
| 20260505121523 | 17 | 159 | 1.6 | 1.6 | 0.00 | 0.05 | 0.05 | 72 | 1011.3 |
| 20260505121020 | 17 | 202 | 4.8 | 4.8 | 0.00 | 0.05 | 0.05 | 71 | 1011.3 |
| 20260505120516 | 18 | 141 | 0.0 | 3.2 | 0.00 | 0.05 | 0.05 | 76 | 1011.3 |
| 20260505120012 | 18 | 80 | 1.6 | 3.2 | 0.00 | 0.05 | 0.05 | 75 | 1011.3 |
| 20260505115507 | 17 | 157 | 3.2 | 3.2 | 0.00 | 0.05 | 0.05 | 74 | 1011.3 |
| 20260505115005 | 17 | 145 | 1.6 | 3.2 | 0.00 | 0.05 | 0.05 | 85 | 1011.2 |
| 20260505114501 | 17 | 123 | 0.0 | 4.8 | 0.00 | 0.05 | 0.05 | 81 | 1010.8 |
| 20260505113958 | 16 | 112 | 0.0 | 1.6 | 0.00 | 0.05 | 0.05 | 84 | 1010.9 |
| 20260505113454 | 15 | 100 | 1.6 | 1.6 | 0.00 | 0.05 | 0.05 | 83 | 1011.1 |
| 20260505112950 | 15 | 129 | 0.0 | 0.0 | 0.00 | 0.05 | 0.05 | 86 | 1011.1 |
| 20260505112447 | 14 | 147 | 0.0 | 0.0 | 0.00 | 0.05 | 0.05 | 88 | 1011.0 |
| 20260505111944 | 13 | 147 | 0.0 | 4.8 | 0.00 | 0.05 | 0.05 | 90 | 1011.1 |
| 20260505111438 | 13 | 130 | 0.0 | 0.0 | 0.00 | 0.05 | 0.05 | 91 | 1011.1 |
| 20260505110935 | 13 | 106 | 1.6 | 1.6 | 0.00 | 0.05 | 0.05 | 91 | 1010.9 |
| 20260505110432 | 12 | 89 | 3.2 | 3.2 | 0.00 | 0.05 | 0.05 | 91 | 1011.1 |
| 20260505101903 | 12 | 128 | 4.8 | 4.8 | 0.00 | 0.05 | 0.05 | 89 | 1010.6 |
| 20260505101357 | 11 | 106 | 3.2 | 9.7 | 0.00 | 0.05 | 0.05 | 92 | 1010.7 |
| 20260505100854 | 11 | 123 | 3.2 | 4.8 | 0.00 | 0.05 | 0.05 | 92 | 1010.5 |
| 20260505100350 | 11 | 140 | 1.6 | 4.8 | 0.00 | 0.05 | 0.05 | 97 | 1010.4 |
| 20260505095846 | 11 | 143 | 6.4 | 8.0 | 0.00 | 0.05 | 0.05 | 93 | 1010.5 |
| 20260505095344 | 12 | 120 | 0.0 | 0.0 | 0.00 | 0.05 | 0.05 | 89 | 1010.6 |
| 20260505094839 | 12 | 131 | 3.2 | 3.2 | 0.00 | 0.05 | 0.05 | 89 | 1010.4 |
| 20260505094337 | 13 | 138 | 0.0 | 0.0 | 0.00 | 0.05 | 0.05 | 83 | 1010.4 |
| 20260505093832 | 13 | 172 | 3.2 | 3.2 | 0.00 | 0.05 | 0.05 | 83 | 1010.6 |
| 20260505093330 | 13 | 158 | 0.0 | 0.0 | 0.00 | 0.05 | 0.05 | 83 | 1010.4 |
| 20260505092827 | 13 | 119 | 0.0 | 1.6 | 0.00 | 0.05 | 0.05 | 83 | 1010.5 |
| 20260505092325 | 14 | 154 | 0.0 | 3.2 | 0.00 | 0.05 | 0.05 | 82 | 1010.2 |
| 20260505091822 | 13 | 144 | 0.0 | 3.2 | 0.00 | 0.05 | 0.05 | 82 | 1010.2 |
| 20260505091320 | 15 | 122 | 6.4 | 8.0 | 0.00 | 0.05 | 0.05 | 81 | 1010.4 |
| 20260505090818 | 15 | 163 | 1.6 | 11.3 | 0.00 | 0.05 | 0.05 | 79 | 1010.2 |
| 20260505090316 | 15 | 162 | 1.6 | 8.0 | 0.00 | 0.05 | 0.05 | 80 | 1010.2 |
| 20260505085812 | 14 | 324 | 4.8 | 4.8 | 0.00 | 0.05 | 0.05 | 83 | 1010.3 |
| 20260505085310 | 14 | 92 | 4.8 | 4.8 | 0.00 | 0.05 | 0.05 | 82 | 1010.2 |
| 20260505084808 | 14 | 96 | 0.0 | 4.8 | 0.00 | 0.05 | 0.05 | 83 | 1010.3 |
| 20260505084306 | 15 | 117 | 0.0 | 3.2 | 0.00 | 0.05 | 0.05 | 82 | 1010.3 |
| 20260505083803 | 13 | 216 | 8.0 | 11.3 | 0.00 | 0.05 | 0.05 | 85 | 1010.2 |
| 20260505083300 | 13 | 113 | 0.0 | 0.0 | 0.00 | 0.05 | 0.05 | 90 | 1010.3 |
| 20260505082756 | 12 | 75 | 0.0 | 3.2 | 0.00 | 0.05 | 0.05 | 92 | 1010.4 |
| 20260505082253 | 13 | 134 | 0.0 | 4.8 | 0.00 | 0.05 | 0.05 | 91 | 1010.2 |
| 20260505081749 | 13 | 114 | 4.8 | 4.8 | 0.00 | 0.05 | 0.05 | 94 | 1010.1 |
| 20260505081247 | 13 | 144 | 0.0 | 1.6 | 0.00 | 0.05 | 0.05 | 94 | 1010.2 |
| 20260505080743 | 13 | 147 | 0.0 | 0.0 | 0.00 | 0.05 | 0.05 | 95 | 1010.4 |
| 20260505080239 | 13 | 306 | 4.8 | 4.8 | 0.00 | 0.05 | 0.05 | 94 | 1010.1 |
| 20260505075735 | 13 | 103 | 1.6 | 4.8 | 0.00 | 0.05 | 0.05 | 94 | 1010.3 |
| 20260505075232 | 12 | 97 | 3.2 | 4.8 | 0.00 | 0.05 | 0.05 | 98 | 1010.2 |
| 20260505074729 | 13 | 75 | 0.0 | 1.6 | 0.00 | 0.05 | 0.05 | 98 | 1010.2 |
| 20260505074227 | 13 | 127 | 0.0 | 0.0 | 0.00 | 0.05 | 0.05 | 98 | 1010.3 |
| 20260505073724 | 13 | 137 | 0.0 | 3.2 | 0.00 | 0.05 | 0.05 | 98 | 1010.3 |
| 20260505073222 | 13 | 148 | 0.0 | 1.6 | 0.00 | 0.05 | 0.05 | 98 | 1010.1 |
| 20260505072718 | 14 | 140 | 0.0 | 3.2 | 0.00 | 0.05 | 0.05 | 95 | 1010.2 |
| 20260505072214 | 15 | 141 | 0.0 | 3.2 | 0.00 | 0.05 | 0.05 | 90 | 1010.4 |
| 20260505071709 | 15 | 153 | 1.6 | 12.9 | 0.00 | 0.05 | 0.05 | 83 | 1010.4 |
| 20260505071207 | 14 | 333 | 12.9 | 20.9 | 0.00 | 0.05 | 0.05 | 89 | 1010.5 |
| 20260505070705 | 14 | 129 | 1.6 | 3.2 | 0.00 | 0.05 | 0.05 | 88 | 1009.8 |
| 20260505070201 | 14 | 149 | 0.0 | 8.0 | 0.00 | 0.05 | 0.05 | 90 | 1009.6 |
| 20260505065656 | 15 | 161 | 6.4 | 9.7 | 0.36 | 0.05 | 0.05 | 83 | 1009.4 |
| 20260505065154 | 15 | 231 | 11.3 | 20.9 | 0.18 | 0.03 | 0.03 | 79 | 1010.3 |
| 20260505064651 | 15 | 98 | 0.0 | 0.0 | 0.00 | 0.00 | 0.00 | 79 | 1010.4 |
| 20260505064149 | 14 | 97 | 0.0 | 0.0 | 0.00 | 0.00 | 0.00 | 78 | 1010.0 |
| 20260505063646 | 15 | 121 | 0.0 | 1.6 | 0.00 | 0.00 | 0.00 | 77 | 1010.0 |
| 20260505063142 | 15 | 144 | 3.2 | 3.2 | 0.00 | 0.00 | 0.00 | 77 | 1009.9 |
| 20260505062638 | 15 | 143 | 3.2 | 8.0 | 0.00 | 0.00 | 0.00 | 76 | 1010.1 |
| 20260505062136 | 14 | 115 | 0.0 | 1.6 | 0.00 | 0.00 | 0.00 | 77 | 1010.1 |
| 20260505061633 | 15 | 108 | 1.6 | 1.6 | 0.00 | 0.00 | 0.00 | 76 | 1009.9 |
| 20260505061131 | 15 | 120 | 0.0 | 1.6 | 0.00 | 0.00 | 0.00 | 75 | 1010.0 |
| 20260505060628 | 15 | 97 | 4.8 | 4.8 | 0.00 | 0.00 | 0.00 | 73 | 1010.0 |
| 20260505060125 | 15 | 78 | 1.6 | 3.2 | 0.00 | 0.00 | 0.00 | 75 | 1010.0 |
| 20260505055620 | 15 | 77 | 3.2 | 3.2 | 0.00 | 0.00 | 0.00 | 74 | 1010.2 |
| 20260505055117 | 15 | 59 | 3.2 | 3.2 | 0.00 | 0.00 | 0.00 | 73 | 1010.1 |
| 20260505054614 | 15 | 114 | 0.0 | 3.2 | 0.00 | 0.00 | 0.00 | 72 | 1009.9 |
| 20260505054112 | 16 | 130 | 0.0 | 4.8 | 0.00 | 0.00 | 0.00 | 66 | 1010.3 |
| 20260505053609 | 15 | 82 | 4.8 | 8.0 | 0.00 | 0.00 | 0.00 | 67 | 1010.2 |
| 20260505053105 | 16 | 113 | 0.0 | 1.6 | 0.00 | 0.00 | 0.00 | 67 | 1010.4 |
| 20260505052603 | 16 | 78 | 0.0 | 3.2 | 0.00 | 0.00 | 0.00 | 66 | 1010.4 |
| 20260505052100 | 16 | 51 | 4.8 | 8.0 | 0.00 | 0.00 | 0.00 | 64 | 1010.3 |
| 20260505051557 | 15 | 146 | 0.0 | 4.8 | 0.00 | 0.00 | 0.00 | 72 | 1010.4 |
| 20260505051055 | 15 | 111 | 0.0 | 0.0 | 0.00 | 0.00 | 0.00 | 72 | 1010.2 |
| 20260505050553 | 15 | 115 | 0.0 | 1.6 | 0.00 | 0.00 | 0.00 | 71 | 1010.2 |
| 20260505041520 | 17 | 209 | 6.4 | 12.9 | 0.00 | 0.00 | 0.00 | 58 | 1009.9 |
| 20260505041018 | 17 | 210 | 6.4 | 16.1 | 0.00 | 0.00 | 0.00 | 58 | 1009.9 |
| 20260505040515 | 17 | 217 | 11.3 | 14.5 | 0.00 | 0.00 | 0.00 | 58 | 1009.8 |
| 20260505040012 | 17 | 158 | 4.8 | 14.5 | 0.00 | 0.00 | 0.00 | 58 | 1009.6 |
| 20260505035508 | 17 | 164 | 20.9 | 29.0 | 0.00 | 0.00 | 0.00 | 57 | 1009.5 |
| 20260505035005 | 17 | 182 | 6.4 | 14.5 | 0.00 | 0.00 | 0.00 | 58 | 1010.0 |
| 20260505034501 | 17 | 203 | 4.8 | 20.9 | 0.00 | 0.00 | 0.00 | 58 | 1009.8 |
| 20260505033959 | 17 | 227 | 12.9 | 17.7 | 0.00 | 0.00 | 0.00 | 58 | 1009.7 |
| 20260505033455 | 17 | 195 | 8.0 | 22.5 | 0.00 | 0.00 | 0.00 | 56 | 1009.6 |
| 20260505032954 | 17 | 190 | 14.5 | 22.5 | 0.00 | 0.00 | 0.00 | 56 | 1009.6 |
| 20260505032451 | 17 | 184 | 19.3 | 29.0 | 0.00 | 0.00 | 0.00 | 56 | 1009.7 |
| 20260505031947 | 17 | 157 | 19.3 | 33.8 | 0.00 | 0.00 | 0.00 | 56 | 1009.5 |
| 20260505031444 | 17 | 193 | 17.7 | 32.2 | 0.00 | 0.00 | 0.00 | 56 | 1009.7 |
| 20260505030941 | 17 | 146 | 9.7 | 29.0 | 0.00 | 0.00 | 0.00 | 56 | 1009.8 |
| 20260505030437 | 17 | 196 | 12.9 | 27.4 | 0.00 | 0.00 | 0.00 | 55 | 1009.6 |
| 20260505025932 | 17 | 189 | 14.5 | 25.7 | 0.00 | 0.00 | 0.00 | 55 | 1009.5 |
| 20260505025430 | 17 | 160 | 17.7 | 22.5 | 0.00 | 0.00 | 0.00 | 55 | 1009.6 |
| 20260505024928 | 17 | 187 | 20.9 | 25.7 | 0.00 | 0.00 | 0.00 | 55 | 1009.7 |
| 20260505024425 | 17 | 149 | 9.7 | 17.7 | 0.00 | 0.00 | 0.00 | 56 | 1009.7 |
| 20260505023922 | 17 | 201 | 16.1 | 22.5 | 0.00 | 0.00 | 0.00 | 55 | 1009.7 |
| 20260505023419 | 18 | 173 | 12.9 | 24.1 | 0.00 | 0.00 | 0.00 | 55 | 1009.5 |
| 20260505022917 | 18 | 220 | 11.3 | 20.9 | 0.00 | 0.00 | 0.00 | 53 | 1009.7 |
| 20260505022414 | 18 | 208 | 20.9 | 27.4 | 0.00 | 0.00 | 0.00 | 53 | 1009.7 |
| 20260505021911 | 18 | 159 | 8.0 | 12.9 | 0.00 | 0.00 | 0.00 | 55 | 1009.8 |
| 20260505021407 | 18 | 147 | 19.3 | 22.5 | 0.00 | 0.00 | 0.00 | 54 | 1009.8 |
| 20260505020903 | 18 | 137 | 24.1 | 33.8 | 0.00 | 0.00 | 0.00 | 54 | 1010.0 |
| 20260505020359 | 17 | 140 | 19.3 | 25.7 | 0.00 | 0.00 | 0.00 | 54 | 1009.8 |
| 20260505015856 | 18 | 144 | 8.0 | 17.7 | 0.00 | 0.00 | 0.00 | 55 | 1009.8 |
| 20260505015353 | 18 | 156 | 6.4 | 17.7 | 0.00 | 0.00 | 0.00 | 54 | 1009.9 |
| 20260505014850 | 18 | 204 | 9.7 | 14.5 | 0.00 | 0.00 | 0.00 | 54 | 1009.8 |
| 20260505014347 | 18 | 156 | 3.2 | 14.5 | 0.00 | 0.00 | 0.00 | 54 | 1010.0 |
| 20260505013844 | 18 | 211 | 8.0 | 27.4 | 0.00 | 0.00 | 0.00 | 54 | 1009.7 |
| 20260505013341 | 18 | 213 | 17.7 | 25.7 | 0.00 | 0.00 | 0.00 | 52 | 1009.8 |
| 20260505012839 | 18 | 233 | 20.9 | 25.7 | 0.00 | 0.00 | 0.00 | 52 | 1009.9 |
| 20260505012337 | 18 | 168 | 6.4 | 16.1 | 0.00 | 0.00 | 0.00 | 53 | 1009.7 |
| 20260505011833 | 18 | 165 | 14.5 | 22.5 | 0.00 | 0.00 | 0.00 | 52 | 1010.0 |
| 20260505011330 | 18 | 163 | 11.3 | 17.7 | 0.00 | 0.00 | 0.00 | 53 | 1009.7 |
| 20260505010826 | 18 | 188 | 12.9 | 20.9 | 0.00 | 0.00 | 0.00 | 52 | 1009.5 |
| 20260505010322 | 18 | 102 | 17.7 | 25.7 | 0.00 | 0.00 | 0.00 | 53 | 1009.6 |
| 20260505005818 | 18 | 160 | 8.0 | 12.9 | 0.00 | 0.00 | 0.00 | 52 | 1009.5 |
| 20260505005315 | 18 | 144 | 0.0 | 4.8 | 0.00 | 0.00 | 0.00 | 53 | 1009.2 |
| 20260505004813 | 20 | 231 | 6.4 | 11.3 | 0.00 | 0.00 | 0.00 | 49 | 1009.5 |
| 20260505004308 | 20 | 207 | 8.0 | 14.5 | 0.00 | 0.00 | 0.00 | 49 | 1009.1 |
| 20260505003806 | 20 | 235 | 14.5 | 17.7 | 0.00 | 0.00 | 0.00 | 48 | 1008.9 |
| 20260505003303 | 20 | 188 | 6.4 | 17.7 | 0.00 | 0.00 | 0.00 | 48 | 1009.2 |
| 20260505002759 | 20 | 223 | 12.9 | 14.5 | 0.00 | 0.00 | 0.00 | 49 | 1009.3 |
| 20260505002257 | 20 | 209 | 4.8 | 9.7 | 0.00 | 0.00 | 0.00 | 49 | 1009.2 |
| 20260505001755 | 20 | 217 | 8.0 | 12.9 | 0.00 | 0.00 | 0.00 | 48 | 1009.4 |
| 20260505001252 | 20 | 217 | 6.4 | 17.7 | 0.00 | 0.00 | 0.00 | 48 | 1009.2 |
| 20260505000749 | 20 | 197 | 8.0 | 22.5 | 0.00 | 0.00 | 0.00 | 48 | 1009.1 |
| 20260505000247 | 20 | 203 | 11.3 | 24.1 | 0.00 | 0.00 | 0.00 | 47 | 1009.0 |
| 20260504235743 | 20 | 203 | 9.7 | 12.9 | 0.00 | 0.00 | 0.00 | 48 | 1009.1 |
| 20260504235239 | 20 | 168 | 3.2 | 9.7 | 0.00 | 0.00 | 0.00 | 48 | 1009.1 |
| 20260504234736 | 20 | 178 | 6.4 | 9.7 | 0.00 | 0.00 | 0.00 | 48 | 1009.0 |
| 20260504234234 | 20 | 224 | 11.3 | 22.5 | 0.00 | 0.00 | 0.00 | 47 | 1009.0 |
| 20260504233730 | 20 | 209 | 11.3 | 16.1 | 0.00 | 0.00 | 0.00 | 47 | 1009.1 |
| 20260504233226 | 20 | 224 | 8.0 | 17.7 | 0.00 | 0.00 | 0.00 | 47 | 1009.0 |
| 20260504232723 | 21 | 212 | 11.3 | 16.1 | 0.00 | 0.00 | 0.00 | 46 | 1008.8 |
| 20260504232220 | 21 | 194 | 8.0 | 16.1 | 0.00 | 0.00 | 0.00 | 47 | 1008.8 |
| 20260504231716 | 21 | 204 | 14.5 | 24.1 | 0.00 | 0.00 | 0.00 | 46 | 1008.9 |
| 20260504231213 | 21 | 233 | 14.5 | 24.1 | 0.00 | 0.00 | 0.00 | 46 | 1009.2 |
| 20260504230709 | 21 | 206 | 14.5 | 20.9 | 0.00 | 0.00 | 0.00 | 45 | 1008.8 |
| 20260504230208 | 21 | 176 | 6.4 | 17.7 | 0.00 | 0.00 | 0.00 | 46 | 1008.9 |
| 20260504225706 | 21 | 223 | 11.3 | 22.5 | 0.00 | 0.00 | 0.00 | 46 | 1008.6 |
| 20260504225202 | 21 | 196 | 9.7 | 16.1 | 0.00 | 0.00 | 0.00 | 45 | 1008.7 |
| 20260504224659 | 21 | 187 | 14.5 | 22.5 | 0.00 | 0.00 | 0.00 | 46 | 1008.9 |